Weather History for West Palm Beach, FL

Change the Weather History Date:

Sunday, June 2, 2013

  Actual Average Record
Temperature  
Mean Temperature 78 °F 81 °F  
Max Temperature 85 °F 88 °F 95 °F (1998)
Min Temperature 70 °F 74 °F 62 °F (1984)
Degree Days  
Heating Degree Days 0 0  
Month to date heating degree days 0 0  
Since 1 June heating degree days 0 0  
Since 1 July heating degree days 164 233  
Cooling Degree Days 13 16  
Month to date cooling degree days 25 31  
Year to date cooling degree days 1206 1140  
Since 1 June cooling degree days 25 31  
Growing Degree Days 27 (Base 50)    
Moisture  
Dew Point 72 °F    
Average Humidity 83    
Maximum Humidity 100    
Minimum Humidity 65    
Precipitation  
Precipitation T in 0.26 in 3.68 in (2007)
Month to date precipitation 0.11 0.52  
Year to date precipitation 25.06 19.23  
Snow  
Snow 0.00 in - - ()
Month to date snowfall 0.0  
Since 1 June snowfall 0.0  
Since 1 July snowfall 0.0  
Snow Depth 0.00 in    
Sea Level Pressure  
Sea Level Pressure 29.96 in    
Wind  
Wind Speed 5 mph (South)    
Max Wind Speed 18 mph    
Max Gust Speed 25 mph    
Visibility 10 miles    
Events Rain    
T = Trace of Precipitation, MM = Missing Value Source: NWS Daily Summary

Daily Weather History Graph

Daily Weather History Graph

Search for Another Location

Airport:

Trip Planner

Search our weather history database for the weather conditions in past years. The results will help you decide how hot, cold, wet, or windy it might be!

Date:

Astronomy

Jun. 02, 2013 Rise Set
Actual Time 6:26 AM EDT 8:10 PM EDT
Civil Twilight 6:00 AM EDT 8:36 PM EDT
Nautical Twilight 5:29 AM EDT 9:07 PM EDT
Astronomical Twilight 4:56 AM EDT 9:40 PM EDT
Moon 2:23 AM EDT 3:05 PM EDT
Length of Visible Light 14h 35m
Length of Day
13h 43m
Waning Crescent, 31% of the Moon is Illuminated
Jun 2
Waning Crescent
Jun 8
New
Jun 16
First Quarter
Jun 23
Full
Jun 30
Last Quarter

Hourly Weather History & Observations

Time (EDT) Temp. Heat Index Dew Point Humidity Pressure Visibility Wind Dir Wind Speed Gust Speed Precip Events Conditions
12:53 AM 73.0 °F - 72.0 °F 96% 29.99 in 10.0 mi South 3.5 mph - N/A   Scattered Clouds
1:53 AM 73.0 °F - 72.0 °F 96% 29.98 in 10.0 mi Calm Calm - N/A   Mostly Cloudy
2:53 AM 73.0 °F - 72.0 °F 96% 29.96 in 10.0 mi Calm Calm - N/A   Clear
3:53 AM 72.0 °F - 72.0 °F 100% 29.96 in 10.0 mi Calm Calm - N/A   Clear
4:53 AM 72.0 °F - 72.0 °F 100% 29.95 in 10.0 mi North 3.5 mph - N/A   Partly Cloudy
5:53 AM 71.1 °F - 71.1 °F 100% 29.96 in 10.0 mi Calm Calm - N/A   Partly Cloudy
6:53 AM 70.0 °F - 70.0 °F 100% 29.98 in 10.0 mi Calm Calm - N/A   Mostly Cloudy
7:53 AM 73.9 °F - 73.0 °F 97% 29.99 in 10.0 mi Calm Calm - N/A   Mostly Cloudy
8:53 AM 78.1 °F - 73.9 °F 87% 29.99 in 10.0 mi SSW 4.6 mph - N/A   Scattered Clouds
9:53 AM 80.1 °F 84.2 °F 73.0 °F 79% 29.99 in 10.0 mi SSE 3.5 mph - N/A   Scattered Clouds
10:53 AM 82.0 °F 86.7 °F 72.0 °F 71% 29.99 in 10.0 mi South 5.8 mph - N/A   Scattered Clouds
11:53 AM 81.0 °F 85.8 °F 73.0 °F 77% 29.98 in 10.0 mi SE 8.1 mph - N/A   Scattered Clouds
12:53 PM 82.9 °F 88.8 °F 73.0 °F 72% 29.97 in 10.0 mi East 8.1 mph - N/A   Mostly Cloudy
1:53 PM 84.9 °F 90.7 °F 72.0 °F 65% 29.95 in 10.0 mi SE 11.5 mph - N/A   Mostly Cloudy
2:53 PM 84.0 °F 89.6 °F 72.0 °F 67% 29.94 in 10.0 mi SE 17.3 mph - N/A   Mostly Cloudy
3:53 PM 82.9 °F 88.0 °F 72.0 °F 69% 29.93 in 10.0 mi SSE 15.0 mph 25.3 mph N/A   Mostly Cloudy
4:53 PM 82.0 °F 86.3 °F 71.1 °F 69% 29.92 in 10.0 mi South 8.1 mph - N/A   Mostly Cloudy
5:53 PM 81.0 °F 84.4 °F 70.0 °F 69% 29.93 in 10.0 mi South 5.8 mph - N/A   Mostly Cloudy
6:53 PM 80.1 °F 83.6 °F 71.1 °F 74% 29.93 in 10.0 mi SE 6.9 mph - N/A   Mostly Cloudy
7:35 PM 78.8 °F - 69.8 °F 74% 29.94 in 10.0 mi SW 12.7 mph 19.6 mph N/A   Mostly Cloudy
7:47 PM 78.8 °F - 71.6 °F 78% 29.95 in 10.0 mi WSW 11.5 mph - N/A   Mostly Cloudy
7:53 PM 77.0 °F - 71.1 °F 82% 29.95 in 10.0 mi WSW 10.4 mph - N/A   Mostly Cloudy
8:15 PM 75.2 °F - 71.6 °F 89% 29.95 in 10.0 mi West 5.8 mph - 0.00 in   Mostly Cloudy
8:53 PM 75.0 °F - 73.0 °F 94% 29.96 in 10.0 mi NW 5.8 mph - 0.00 in Rain Light Rain
9:53 PM 75.0 °F - 73.0 °F 94% 29.97 in 10.0 mi Calm Calm - 0.00 in   Mostly Cloudy
10:53 PM 75.0 °F - 73.0 °F 94% 29.99 in 10.0 mi Calm Calm - N/A   Mostly Cloudy
11:53 PM 75.0 °F - 72.0 °F 90% 29.98 in 10.0 mi South 3.5 mph - N/A   Mostly Cloudy